Renton, WA
on Thursday, November 15, 2012

Thursday
Previous Day Next Day
Daily Summary
 ActualAverage (KSEA)Record (KSEA)
Temperature
Mean Temperature °F 46°F  
Max Temperature 51°F 51°F 62°F (2001)
Min Temperature 37°F 40°F 6°F (1955)
Degree Days
Heating Degree Days 21 19  
Month to date heating degree days 268  
Since 1 July heating degree days 865  
Cooling Degree Days 0 0  
Month to date cooling degree days 0  
Year to date cooling degree days 189  
Moisture
Dew Point 39°F   
Average Humidity 91    
Maximum Humidity 100    
Minimum Humidity 68    
Precipitation
Precipitation 0.00 in 0.23 in 1.09 in (2007)
Month to date precipitation 3.19  
Year to date precipitation 28.76  
Snow
Snow 0.00 in in 0.20 in (1975)
Month to date snowfall  
Since 1 July snowfall  
Snow Depth in   
Wind
Wind Speed 2 mph   
Max Wind Speed 12 mph   
Max Gust Speed mph   
Visibility 6 miles   
Events Fog   

Key: T is trace of precipitation, MM is missing value
Source: NWS Daily Summary
Time(PST)TemperatureDew PointHumidity Pressure Visibility Wind DirectionWind SpeedGust SpeedPrecipitationEvents Conditions
12:14 AM 39.2°F 37.4°F 93% 30.27 in 1.2 miles Calm Calm - N/A   Overcast
12:41 AM 39.2°F 37.4°F 93% 30.26 in 0.5 miles Calm Calm - N/A Fog Fog
12:53 AM 39.0°F 37.9°F 96% 30.28 in 0.2 miles Calm Calm - N/A Fog Fog
1:53 AM 39.0°F 39.0°F 100% 30.26 in 0.2 miles Calm Calm - N/A Fog Fog
2:53 AM 39.0°F 39.0°F 100% 30.25 in 0.5 miles Calm Calm - N/A Fog Fog
3:53 AM 39.9°F 39.9°F 100% 30.22 in 0.5 miles Calm Calm - N/A Fog Fog
4:14 AM 39.2°F 39.2°F 100% 30.21 in 2.0 miles Calm Calm - N/A   Overcast
4:23 AM 39.2°F 39.2°F 100% 30.20 in 3.0 miles Calm Calm - N/A   Overcast
4:53 AM 39.9°F 39.9°F 100% 30.21 in 5.0 miles North 3.5 mph - N/A   Overcast
5:53 AM 39.0°F 39.0°F 100% 30.19 in 10.0 miles Calm Calm - N/A   Overcast
6:25 AM 37.4°F 37.4°F 100% 30.17 in 10.0 miles North 4.6 mph - N/A   Scattered Clouds
6:53 AM 37.9°F 37.9°F 100% 30.18 in 10.0 miles Variable 3.5 mph - N/A   Partly Cloudy
7:16 AM 37.4°F 37.4°F 100% 30.16 in 10.0 miles Calm Calm - N/A   Mostly Cloudy
7:53 AM 37.0°F 37.0°F 100% 30.17 in 10.0 miles North 4.6 mph - N/A   Mostly Cloudy
8:08 AM 39.2°F 37.4°F 93% 30.14 in 9.0 miles NNW 9.2 mph - 0.00 in   Scattered Clouds
8:53 AM 39.9°F 37.9°F 93% 30.14 in 10.0 miles NW 10.4 mph - 0.00 in   Clear
9:39 AM 39.2°F 37.4°F 93% 30.11 in 10.0 miles NW 11.5 mph - N/A   Partly Cloudy
9:53 AM 41.0°F 37.9°F 89% 30.12 in 10.0 miles NW 10.4 mph - N/A   Scattered Clouds
10:53 AM 44.1°F 39.9°F 85% 30.10 in 10.0 miles NW 4.6 mph - N/A   Scattered Clouds
11:53 AM 46.0°F 39.9°F 79% 30.06 in 10.0 miles Calm Calm - N/A   Clear
12:53 PM 48.0°F 41.0°F 77% 30.04 in 10.0 miles NNW 3.5 mph - N/A   Clear
1:53 PM 51.1°F 41.0°F 68% 30.03 in 10.0 miles Calm Calm - N/A   Clear
2:53 PM 51.1°F 41.0°F 68% 30.02 in 10.0 miles Calm Calm - N/A   Clear
3:53 PM 48.9°F 42.1°F 77% 30.02 in 10.0 miles South 6.9 mph - N/A   Clear
4:53 PM 46.9°F 41.0°F 80% 30.01 in 10.0 miles South 3.5 mph - N/A   Clear
5:53 PM 45.0°F 39.9°F 82% 30.01 in 8.0 miles Calm Calm - N/A   Partly Cloudy
6:53 PM 44.1°F 39.9°F 85% 30.00 in 7.0 miles Calm Calm - N/A   Clear
7:53 PM 42.1°F 39.0°F 89% 29.99 in 6.0 miles East 3.5 mph - N/A   Clear
8:19 PM 42.8°F 39.2°F 87% 29.97 in 6.0 miles Calm Calm - N/A   Partly Cloudy
8:39 PM 42.8°F 39.2°F 87% 29.97 in 4.0 miles Calm Calm - N/A   Mostly Cloudy
8:46 PM 42.8°F 39.2°F 87% 29.96 in 2.5 miles Calm Calm - N/A   Scattered Clouds
8:53 PM 41.0°F 39.0°F 93% 29.98 in 3.0 miles SSE 3.5 mph - N/A   Mostly Cloudy
9:05 PM 41.0°F 39.2°F 93% 29.97 in 4.0 miles Calm Calm - N/A   Scattered Clouds
9:53 PM 39.9°F 37.0°F 89% 29.98 in 6.0 miles ESE 3.5 mph - N/A   Clear
10:10 PM 39.2°F 37.4°F 93% 29.96 in 5.0 miles Calm Calm - N/A   Scattered Clouds
10:19 PM 39.2°F 37.4°F 93% 29.96 in 2.5 miles Calm Calm - N/A   Mostly Cloudy
10:33 PM 39.2°F 37.4°F 93% 29.96 in 4.0 miles ESE 3.5 mph - N/A   Overcast
10:53 PM 39.0°F 37.0°F 93% 29.98 in 4.0 miles East 4.6 mph - N/A   Overcast
11:16 PM 39.2°F 37.4°F 93% 29.96 in 1.5 miles ESE 4.6 mph - N/A   Overcast
11:27 PM 39.2°F 37.4°F 93% 29.95 in 0.8 miles ESE 3.5 mph - N/A   Mist
11:53 PM 39.0°F 37.0°F 93% 29.97 in 1.5 miles East 4.6 mph - N/A   Overcast
Moon Phase
Nov. 15 Nov. 20 Nov. 28 Dec. 06 Dec. 13
Sunrise:07:14 AM (PST) Moon Rise:09:21 AM (PST)11/15
Sunset:04:32 PM (PST) Moon Set:06:24 PM (PST)11/15

Copyright © 2014 The Weather Underground, Inc.